Change the Weather History Date:

Wednesday, February 20, 2013

  Actual Average Record
Temperature  
Mean Temperature 46 °F 54 °F  
Max Temperature 62 °F 65 °F 84 °F (1991)
Min Temperature 30 °F 43 °F 21 °F (2015)
Degree Days  
Heating Degree Days 19 11  
Month to date heating degree days 258 259  
Since 1 July heating degree days 1151 1433  
Cooling Degree Days 0 0  
Month to date cooling degree days 2 0  
Year to date cooling degree days 28 3  
Moisture  
Dew Point 31 °F    
Average Humidity 63    
Maximum Humidity 100    
Minimum Humidity 25    
Precipitation  
Precipitation 0.00 in 0.10 in 2.15 in (1914)
Month to date precipitation 5.84 1.97  
Year to date precipitation 6.39 5.66  
Snow  
Snow 0.00 in 0.00 in - ()
Month to date snowfall 0.0  
Since 1 July snowfall 0.0 0.3  
Snow Depth 0.00 in    
Sea Level Pressure  
Sea Level Pressure 30.13 in    
Wind  
Wind Speed 4 mph (WNW)    
Max Wind Speed 12 mph    
Max Gust Speed 18 mph    
Visibility 10 miles    
Events      
T = Trace of Precipitation, MM = Missing Value Source: NWS Daily Summary

Daily Weather History Graph

Daily Weather History Graph

Search for Another Location

Airport or City:

Trip Planner

Search our weather history database for the weather conditions in past years. The results will help you decide how hot, cold, wet, or windy it might be!

Date:

Astronomy

Feb. 20, 2013 Rise Set
Actual Time 7:01 AM EST 6:15 PM EST
Civil Twilight 6:37 AM EST 6:40 PM EST
Nautical Twilight 6:08 AM EST 7:08 PM EST
Astronomical Twilight 5:40 AM EST 7:37 PM EST
Moon 1:45 PM EST (2/20) 3:10 AM EST (2/20)
Length of Visible Light 12h 03m
Length of Day
11h 13m
Waxing Gibbous, 76% of the Moon is Illuminated
Feb 20
Waxing Gibbous
Feb 25
Full
Mar 4
Last Quarter
Mar 11
New
Mar 19
First Quarter

Hourly Weather History & Observations

Time (EST) Temp. Windchill Dew Point Humidity Pressure Visibility Wind Dir Wind Speed Gust Speed Precip Events Conditions
12:53 AM 48.0 °F - 45.0 °F 89% 30.10 in 10.0 mi NW 8.1 mph - N/A   Clear
1:53 AM 45.0 °F 41.8 °F 39.9 °F 82% 30.11 in 10.0 mi WNW 5.8 mph - N/A   Clear
2:53 AM 43.0 °F 38.2 °F 35.1 °F 74% 30.12 in 10.0 mi WNW 8.1 mph - N/A   Clear
3:53 AM 39.9 °F 35.8 °F 30.9 °F 70% 30.12 in 10.0 mi NW 5.8 mph - N/A   Clear
4:53 AM 37.0 °F - 32.0 °F 82% 30.12 in 10.0 mi Calm Calm - N/A   Clear
5:53 AM 36.0 °F 33.3 °F 30.9 °F 82% 30.14 in 10.0 mi West 3.5 mph - N/A   Clear
6:53 AM 34.0 °F - 28.0 °F 79% 30.17 in 10.0 mi Calm Calm - N/A   Partly Cloudy
7:53 AM 34.0 °F - 30.9 °F 89% 30.19 in 10.0 mi Calm Calm - N/A   Scattered Clouds
8:53 AM 42.1 °F 38.4 °F 28.9 °F 60% 30.19 in 10.0 mi WNW 5.8 mph - N/A   Scattered Clouds
9:53 AM 46.9 °F - 27.0 °F 46% 30.19 in 10.0 mi NW 6.9 mph - N/A   Scattered Clouds
10:53 AM 51.1 °F - 24.1 °F 35% 30.17 in 10.0 mi Variable 3.5 mph - N/A   Scattered Clouds
11:53 AM 54.0 °F - 24.1 °F 31% 30.16 in 10.0 mi NNW 4.6 mph - N/A   Scattered Clouds
12:53 PM 55.0 °F - 23.0 °F 29% 30.12 in 10.0 mi NW 3.5 mph - N/A   Mostly Cloudy
1:53 PM 57.9 °F - 24.1 °F 27% 30.09 in 10.0 mi Calm Calm - N/A   Mostly Cloudy
2:53 PM 61.0 °F - 25.0 °F 25% 30.09 in 10.0 mi West 5.8 mph - N/A   Scattered Clouds
3:53 PM 62.1 °F - 26.1 °F 25% 30.07 in 10.0 mi Variable 3.5 mph - N/A   Scattered Clouds
4:53 PM 61.0 °F - 27.0 °F 27% 30.09 in 10.0 mi West 9.2 mph - N/A   Mostly Cloudy
5:53 PM 57.9 °F - 30.0 °F 35% 30.10 in 10.0 mi WNW 4.6 mph - N/A   Overcast
6:53 PM 55.0 °F - 32.0 °F 42% 30.13 in 10.0 mi Calm Calm - N/A   Overcast
7:53 PM 52.0 °F - 35.1 °F 53% 30.13 in 10.0 mi Calm Calm - N/A   Mostly Cloudy
8:53 PM 50.0 °F - 36.0 °F 59% 30.10 in 10.0 mi SSE 6.9 mph - N/A   Overcast
9:53 PM 48.9 °F - 37.0 °F 64% 30.08 in 10.0 mi SE 8.1 mph - N/A   Overcast
10:53 PM 48.9 °F - 37.9 °F 66% 30.12 in 10.0 mi SSW 3.5 mph - N/A   Mostly Cloudy
11:53 PM 45.0 °F - 37.9 °F 76% 30.13 in 10.0 mi Calm Calm - N/A   Partly Cloudy